Location: Buckhorn Peak
(37.6641°N, 120.1241°W)
Time: 00:55:18
(UTC+00:00)

BlueWalker 3 - Pass Details

Date: 22 December 2025
Orbit: 452 x 463 km, 53.2° (Epoch: 13 January)

Event Time Altitude Azimuth Distance (km) Brightness Sun altitude
Exits shadow 14:26:31 - 257° (WSW) 1,769 4.2 -9.0°
Reaches altitude 10° 14:27:02 10° 260° (W) 1,583 4.0 -8.9°
Maximum altitude 14:30:15 31° 325° (NW) 813 2.6 -8.3°
Drops below altitude 10° 14:33:30 10° 30° (NNE) 1,595 4.6 -7.8°
Sets 14:35:48 0° 41° (NE) 2,474 5.7 -7.3°
